Regional Weather Roundup
Issued by NWS Jackson, KY

Home | Current Version | Previous Version | Text Only | Print | Product List | Glossary Off
Versions: 1 2 3 4 5 6 7 8 9 10 11 12 13 14 15 16 17 18 19 20 21 22 23 24 25 26 27 28 29 30 31 32 33 34 35 36 37 38 39 40 41 42 43 44 45 46 47 48 49 50

000
ASUS43 KJKL 252310
RWRJKL

EAST KENTUCKY HOURLY WEATHER ROUNDUP
NATIONAL WEATHER SERVICE JACKSON KY
700 PM EDT SUN JUN 25 2017

NOTE: "FAIR" INDICATES FEW OR NO CLOUDS BELOW 12,000 FEET WITH
NO SIGNIFICANT WEATHER AND/OR OBSTRUCTIONS TO VISIBILITY.

* THESE REPORTS ARE NOT UNDER NWS QUALITY CONTROL AND MAY NOT
  REPORT WEATHER SUCH AS PRECIPITATION AND FOG.

KYZ079-080-083-085-087-088-110-112-115-119-120-260000
...EASTERN KENTUCKY...

CITY           SKY/WX    TMP DP  RH WIND       PRES   REMARKS
JACKSON        SUNNY     76  52  43 CALM      30.14F
LONDON         SUNNY     77  45  32 W10       30.15F
SOMERSET*      SUNNY     75  45  33 W9        30.16S
MONTICELLO*    SUNNY     78  52  40 W7        30.17F
WILLIAMSBURG*  CLEAR     75  48  38 W6        30.16S
MIDDLESBORO*   SUNNY     77  47  34 N5        30.16R
HARLAN APT*    CLEAR     75  41  29 NW10      30.17R
PIKE CO APT*     N/A     74  49  41 W6        30.14F
BIG SANDY APT* CLEAR     76  50  40 W3        30.13F
MOREHEAD APT*  PTCLDY    77  48  36 W9        30.12F HAZE
$$

KYZ035-036-041-042-044-050-067-078-099-260000
...CENTRAL KENTUCKY...

CITY           SKY/WX    TMP DP  RH WIND       PRES   REMARKS
MT STERLING*   SUNNY     77  52  41 NW9       30.13S
FLEMING/MASON* MOSUNNY   76  50  39 W12       30.10F
DANVILLE*      MOSUNNY   79  50  36 W8        30.14F
LEXINGTON      MOSUNNY   78  48  34 W8G17     30.11F
FRANKFORT      PTSUNNY   77  49  37 W7G18     30.09F
LOUISVILLE     MOSUNNY   81  46  29 W10G25    30.10F
LEBANON*         N/A    N/A N/A N/A MISG        N/A
GLASGOW*       MOSUNNY   80  48  33 W8        30.15S
BOWLING GREEN  SUNNY     81  48  31 W10       30.14F
$$

KYZ091>093-OHZ055-061-077-WVZ005-015-034-035-042-260000
...SOUTHERN OHIO/WEST VIRGINIA...

CITY           SKY/WX    TMP DP  RH WIND       PRES   REMARKS
COVINGTON      MOSUNNY   76  48  37 NW16      30.09F
COLUMBUS       MOSUNNY   72  46  39 W16G22    30.07S
DAYTON         MOSUNNY   72  45  37 W16       30.10F
WILMINGTON     SUNNY     73  46  38 NW15G23   30.08F
HUNTINGTON     SUNNY     77  48  35 W9        30.09S
CHARLESTON     MOSUNNY   76  48  37 W10       30.09F
PINEVILLE*     MOSUNNY   74  47  37 MISG      30.20S
BECKLEY        MOSUNNY   69  44  40 W12       30.17S
BLUEFIELD      SUNNY     66  44  45 VRB7      30.20R
LOGAN CO APT*    N/A     73  46  38 VRB6      30.14S
$$

VAZ002-007-008-TNZ017-027-036-066-071-260000
...SOUTHWEST VIRGINIA/EAST TENNESSEE...

CITY           SKY/WX    TMP DP  RH WIND       PRES   REMARKS
WISE*          SUNNY     70  43  37 NW9       30.21S
JONESVILLE*      N/A     77  46  33 W5        30.18R
ABINGDON*      SUNNY     75  45  34 N8        30.17R
BRISTOL        MOSUNNY   78  50  37 W12       30.14R
MORRISTOWN*    CLEAR     77  48  36 N8        30.14S
SEVIERVILLE*   CLEAR     77  46  33 N7        30.14R
KNOXVILLE      MOSUNNY   78  48  34 N10       30.13R
LAFOLLETTE*    CLEAR     77  45  31 VRB5G12   30.19R
OAK RIDGE      SUNNY     81  41  24 VRB3      30.16R
CROSSVILLE     SUNNY     74  44  34 N9        30.20S
NASHVILLE      MOSUNNY   82  48  30 NW7       30.16F
$$

...KEY TO REMARKS...
VSB - VISIBILITY IN MILES
WCI - WIND CHILL INDEX
HX  - HEAT INDEX

$$



USA.gov is the U.S. government's official web portal to all federal, state and local government web resources and services.